| time (UTC) | temp C | wind direction | speed KPH | gust KPH | rain 1hr cm | rain 24hr cm | rain mn cm | humidity % | barometer mb |
| 20260507213028 | 15 | 34 | 3.2 | 11.3 | 0.00 | 0.00 | 0.00 | 67 | 1014.9 |
| 20260507212529 | 15 | 334 | 1.6 | 11.3 | 0.00 | 0.00 | 0.00 | 66 | 1014.9 |
| 20260507212030 | 15 | 312 | 1.6 | 11.3 | 0.00 | 0.00 | 0.00 | 68 | 1014.5 |
| 20260507211530 | 15 | 298 | 3.2 | 6.4 | 0.00 | 0.00 | 0.00 | 70 | 1014.7 |
| 20260507211028 | 15 | 134 | 1.6 | 3.2 | 0.00 | 0.00 | 0.00 | 72 | 1014.6 |
| 20260507210810 | 15 | 129 | 0.0 | 3.2 | 0.00 | 0.00 | 0.00 | 72 | 1014.7 |
| 20260507210029 | 15 | 155 | 1.6 | 3.2 | 0.00 | 0.00 | 0.00 | 72 | 1014.2 |
| 20260507205530 | 15 | 246 | 0.0 | 3.2 | 0.00 | 0.00 | 0.00 | 71 | 1014.2 |
| 20260507205028 | 15 | 135 | 0.0 | 3.2 | 0.00 | 0.00 | 0.00 | 71 | 1014.5 |
| 20260507204529 | 15 | 317 | 3.2 | 3.2 | 0.00 | 0.00 | 0.00 | 71 | 1014.2 |
| 20260507204031 | 15 | 175 | 0.0 | 3.2 | 0.00 | 0.00 | 0.00 | 73 | 1014.1 |
| 20260507203809 | 15 | 5 | 1.6 | 3.2 | 0.00 | 0.00 | 0.00 | 72 | 1014.0 |
| 20260507203027 | 15 | 48 | 0.0 | 3.2 | 0.00 | 0.00 | 0.00 | 70 | 1014.0 |
| 20260507202528 | 15 | 127 | 0.0 | 3.2 | 0.00 | 0.00 | 0.00 | 69 | 1013.7 |
| 20260507202029 | 15 | 279 | 1.6 | 3.2 | 0.00 | 0.00 | 0.00 | 66 | 1013.7 |
| 20260507201809 | 16 | 135 | 0.0 | 3.2 | 0.00 | 0.00 | 0.00 | 64 | 1014.0 |
| 20260507201308 | 16 | 168 | 3.2 | 3.2 | 0.00 | 0.00 | 0.00 | 62 | 1013.9 |
| 20260507200530 | 16 | 135 | 0.0 | 4.8 | 0.00 | 0.00 | 0.00 | 63 | 1014.0 |
| 20260507200110 | 16 | 151 | 1.6 | 6.4 | 0.00 | 0.00 | 0.00 | 60 | 1013.6 |
| 20260507200059 | 16 | 169 | 1.6 | 6.4 | 0.00 | 0.00 | 0.00 | 60 | 1013.7 |
| 20260507195028 | 16 | 118 | 3.2 | 4.8 | 0.00 | 0.00 | 0.00 | 62 | 1013.7 |
| 20260507194809 | 16 | 224 | 0.0 | 4.8 | 0.00 | 0.00 | 0.00 | 64 | 1013.6 |
| 20260507194029 | 16 | 147 | 3.2 | 3.2 | 0.00 | 0.00 | 0.00 | 65 | 1013.5 |
| 20260507193529 | 16 | 141 | 0.0 | 4.8 | 0.00 | 0.00 | 0.00 | 62 | 1013.7 |
| 20260507193051 | 16 | 32 | 0.0 | 4.8 | 0.00 | 0.00 | 0.00 | 59 | 1013.5 |
| 20260507193043 | 16 | 353 | 0.0 | 4.8 | 0.00 | 0.00 | 0.00 | 61 | 1013.3 |
| 20260507192028 | 16 | 164 | 3.2 | 4.8 | 0.00 | 0.00 | 0.00 | 59 | 1013.5 |
| 20260507191529 | 16 | 190 | 1.6 | 4.8 | 0.00 | 0.00 | 0.00 | 58 | 1013.5 |
| 20260507191027 | 17 | 170 | 3.2 | 4.8 | 0.00 | 0.00 | 0.00 | 58 | 1013.1 |
| 20260507190529 | 17 | 172 | 3.2 | 4.8 | 0.00 | 0.00 | 0.00 | 57 | 1013.4 |
| 20260507190028 | 17 | 139 | 3.2 | 3.2 | 0.00 | 0.00 | 0.00 | 57 | 1013.2 |
| 20260507185530 | 17 | 153 | 0.0 | 3.2 | 0.00 | 0.00 | 0.00 | 56 | 1013.2 |
| 20260507185028 | 17 | 128 | 3.2 | 3.2 | 0.00 | 0.00 | 0.00 | 56 | 1012.9 |
| 20260507184530 | 17 | 150 | 0.0 | 3.2 | 0.00 | 0.00 | 0.00 | 55 | 1012.8 |
| 20260507184028 | 17 | 149 | 1.6 | 3.2 | 0.00 | 0.00 | 0.00 | 55 | 1012.8 |
| 20260507183529 | 17 | 135 | 0.0 | 3.2 | 0.00 | 0.00 | 0.00 | 55 | 1012.8 |
| 20260507183310 | 17 | 163 | 0.0 | 6.4 | 0.00 | 0.00 | 0.00 | 54 | 1012.7 |
| 20260507182528 | 17 | 171 | 1.6 | 6.4 | 0.00 | 0.00 | 0.00 | 53 | 1012.6 |
| 20260507182027 | 18 | 148 | 1.6 | 3.2 | 0.00 | 0.00 | 0.00 | 54 | 1012.4 |
| 20260507181807 | 18 | 142 | 0.0 | 3.2 | 0.00 | 0.00 | 0.00 | 55 | 1012.3 |
| 20260507181307 | 18 | 195 | 0.0 | 3.2 | 0.00 | 0.00 | 0.00 | 53 | 1012.4 |
| 20260507180524 | 18 | 154 | 0.0 | 3.2 | 0.00 | 0.00 | 0.00 | 53 | 1012.4 |
| 20260507180306 | 18 | 168 | 0.0 | 3.2 | 0.00 | 0.00 | 0.00 | 53 | 1012.2 |
| 20260507175513 | 18 | 167 | 0.0 | 4.8 | 0.00 | 0.00 | 0.00 | 52 | 1012.4 |
| 20260507175012 | 18 | 338 | 0.0 | 4.8 | 0.00 | 0.00 | 0.00 | 52 | 1012.1 |
| 20260507174512 | 18 | 218 | 1.6 | 6.4 | 0.00 | 0.00 | 0.00 | 51 | 1012.3 |
| 20260507174012 | 18 | 290 | 1.6 | 6.4 | 0.00 | 0.00 | 0.00 | 51 | 1012.0 |
| 20260507173511 | 18 | 239 | 1.6 | 6.4 | 0.00 | 0.00 | 0.00 | 51 | 1011.9 |
| 20260507173014 | 18 | 281 | 0.0 | 6.4 | 0.00 | 0.00 | 0.00 | 51 | 1011.9 |
| 20260507172512 | 18 | 261 | 0.0 | 8.0 | 0.00 | 0.00 | 0.00 | 51 | 1011.9 |
| 20260507172014 | 18 | 302 | 1.6 | 11.3 | 0.00 | 0.00 | 0.00 | 51 | 1011.7 |
| 20260507171511 | 19 | 312 | 3.2 | 11.3 | 0.00 | 0.00 | 0.00 | 50 | 1012.1 |
| 20260507171059 | 20 | 308 | 6.4 | 9.7 | 0.00 | 0.00 | 0.00 | 47 | 1011.8 |
| 20260507171048 | 19 | 318 | 3.2 | 9.7 | 0.00 | 0.00 | 0.00 | 50 | 1011.8 |
| 20260507170529 | 19 | 310 | 6.4 | 9.7 | 0.00 | 0.00 | 0.00 | 49 | 1011.9 |
| 20260507165756 | 20 | 322 | 0.0 | 9.7 | 0.00 | 0.00 | 0.00 | 47 | 1011.7 |
| 20260507165012 | 20 | 315 | 4.8 | 9.7 | 0.00 | 0.00 | 0.00 | 46 | 1012.0 |
| 20260507164512 | 20 | 312 | 6.4 | 9.7 | 0.00 | 0.00 | 0.00 | 47 | 1011.8 |
| 20260507164014 | 20 | 338 | 3.2 | 6.4 | 0.00 | 0.00 | 0.00 | 47 | 1011.5 |
| 20260507163512 | 20 | 341 | 6.4 | 6.4 | 0.00 | 0.00 | 0.00 | 45 | 1011.7 |
| 20260507163013 | 20 | 269 | 0.0 | 6.4 | 0.00 | 0.00 | 0.00 | 45 | 1011.4 |
| 20260507162512 | 20 | 340 | 0.0 | 6.4 | 0.00 | 0.00 | 0.00 | 46 | 1011.3 |
| 20260507162012 | 20 | 310 | 3.2 | 8.0 | 0.00 | 0.00 | 0.00 | 45 | 1011.6 |
| 20260507161511 | 20 | 286 | 0.0 | 9.7 | 0.00 | 0.00 | 0.00 | 45 | 1011.4 |
| 20260507161013 | 20 | 315 | 0.0 | 9.7 | 0.00 | 0.00 | 0.00 | 45 | 1011.5 |
| 20260507160512 | 20 | 311 | 8.0 | 8.0 | 0.00 | 0.00 | 0.00 | 45 | 1011.4 |
| 20260507160014 | 20 | 280 | 3.2 | 9.7 | 0.00 | 0.00 | 0.00 | 45 | 1011.4 |
| 20260507155512 | 20 | 312 | 6.4 | 12.9 | 0.00 | 0.00 | 0.00 | 45 | 1011.4 |
| 20260507155013 | 20 | 306 | 8.0 | 12.9 | 0.00 | 0.00 | 0.00 | 44 | 1011.4 |
| 20260507154512 | 20 | 300 | 3.2 | 14.5 | 0.00 | 0.00 | 0.00 | 45 | 1011.5 |
| 20260507154253 | 20 | 312 | 8.0 | 14.5 | 0.00 | 0.00 | 0.00 | 45 | 1011.4 |
| 20260507153511 | 21 | 324 | 6.4 | 14.5 | 0.00 | 0.00 | 0.00 | 45 | 1011.6 |
| 20260507153014 | 20 | 319 | 4.8 | 16.1 | 0.00 | 0.00 | 0.00 | 46 | 1011.4 |
| 20260507152512 | 20 | 337 | 11.3 | 14.5 | 0.00 | 0.00 | 0.00 | 46 | 1011.6 |
| 20260507152014 | 20 | 296 | 6.4 | 11.3 | 0.00 | 0.00 | 0.00 | 46 | 1011.5 |
| 20260507151754 | 20 | 305 | 3.2 | 11.3 | 0.00 | 0.00 | 0.00 | 45 | 1011.2 |
| 20260507151013 | 20 | 350 | 3.2 | 11.3 | 0.00 | 0.00 | 0.00 | 45 | 1011.3 |
| 20260507150513 | 20 | 310 | 3.2 | 16.1 | 0.00 | 0.00 | 0.00 | 44 | 1011.3 |
| 20260507150012 | 20 | 301 | 6.4 | 16.1 | 0.00 | 0.00 | 0.00 | 44 | 1011.2 |
| 20260507145746 | 21 | 359 | 3.2 | 14.5 | 0.00 | 0.00 | 0.00 | 43 | 1011.0 |
| 20260507145255 | 21 | 305 | 4.8 | 9.7 | 0.00 | 0.00 | 0.00 | 41 | 1011.3 |
| 20260507144512 | 21 | 312 | 1.6 | 9.7 | 0.00 | 0.00 | 0.00 | 39 | 1011.2 |
| 20260507144014 | 22 | 303 | 3.2 | 9.7 | 0.00 | 0.00 | 0.00 | 38 | 1011.3 |
| 20260507143511 | 22 | 275 | 0.0 | 8.0 | 0.00 | 0.00 | 0.00 | 37 | 1011.1 |
| 20260507143013 | 22 | 143 | 3.2 | 6.4 | 0.00 | 0.00 | 0.00 | 38 | 1011.3 |
| 20260507142513 | 22 | 334 | 1.6 | 11.3 | 0.00 | 0.00 | 0.00 | 37 | 1011.1 |
| 20260507142014 | 22 | 316 | 3.2 | 11.3 | 0.00 | 0.00 | 0.00 | 38 | 1011.3 |
| 20260507141512 | 22 | 331 | 4.8 | 11.3 | 0.00 | 0.00 | 0.00 | 38 | 1011.2 |
| 20260507141035 | 22 | 322 | 3.2 | 16.1 | 0.00 | 0.00 | 0.00 | 40 | 1011.3 |
| 20260507141029 | 22 | 322 | 1.6 | 11.3 | 0.00 | 0.00 | 0.00 | 39 | 1011.5 |
| 20260507140012 | 21 | 321 | 6.4 | 16.1 | 0.00 | 0.00 | 0.00 | 41 | 1011.2 |
| 20260507135511 | 22 | 329 | 8.0 | 11.3 | 0.00 | 0.00 | 0.00 | 39 | 1011.4 |
| 20260507135011 | 22 | 34 | 1.6 | 9.7 | 0.00 | 0.00 | 0.00 | 38 | 1011.4 |
| 20260507134511 | 22 | 206 | 1.6 | 9.7 | 0.00 | 0.00 | 0.00 | 37 | 1011.4 |
| 20260507134252 | 22 | 141 | 1.6 | 9.7 | 0.00 | 0.00 | 0.00 | 36 | 1011.4 |
| 20260507133510 | 22 | 332 | 4.8 | 9.7 | 0.00 | 0.00 | 0.00 | 36 | 1011.4 |
| 20260507133012 | 22 | 53 | 3.2 | 6.4 | 0.00 | 0.00 | 0.00 | 37 | 1011.2 |
| 20260507132511 | 22 | 89 | 3.2 | 8.0 | 0.00 | 0.00 | 0.00 | 39 | 1011.2 |
| 20260507132255 | 22 | 305 | 6.4 | 8.0 | 0.00 | 0.00 | 0.00 | 38 | 1011.4 |
| 20260507131510 | 22 | 199 | 1.6 | 9.7 | 0.00 | 0.00 | 0.00 | 39 | 1011.4 |
| 20260507131011 | 22 | 175 | 3.2 | 9.7 | 0.00 | 0.00 | 0.00 | 39 | 1011.4 |
| 20260507130510 | 22 | 2 | 3.2 | 9.7 | 0.00 | 0.00 | 0.00 | 39 | 1011.5 |
| 20260507130012 | 22 | 169 | 1.6 | 9.7 | 0.00 | 0.00 | 0.00 | 39 | 1011.3 |
| 20260507125504 | 22 | 358 | 1.6 | 14.5 | 0.00 | 0.00 | 0.00 | 40 | 1011.5 |
| 20260507125002 | 22 | 119 | 4.8 | 14.5 | 0.00 | 0.00 | 0.00 | 41 | 1011.5 |
| 20260507124738 | 22 | 317 | 4.8 | 6.4 | 0.00 | 0.00 | 0.00 | 42 | 1011.4 |
| 20260507124003 | 22 | 323 | 3.2 | 6.4 | 0.00 | 0.00 | 0.00 | 42 | 1011.4 |
| 20260507123501 | 23 | 182 | 3.2 | 6.4 | 0.00 | 0.00 | 0.00 | 41 | 1011.8 |
| 20260507123001 | 22 | 112 | 0.0 | 8.0 | 0.00 | 0.00 | 0.00 | 43 | 1011.7 |
| 20260507122500 | 22 | 165 | 3.2 | 8.0 | 0.00 | 0.00 | 0.00 | 45 | 1011.4 |
| 20260507122002 | 21 | 312 | 1.6 | 8.0 | 0.00 | 0.00 | 0.00 | 46 | 1011.7 |
| 20260507121502 | 21 | 135 | 0.0 | 9.7 | 0.00 | 0.00 | 0.00 | 46 | 1012.0 |
| 20260507121001 | 21 | 164 | 4.8 | 9.7 | 0.00 | 0.00 | 0.00 | 46 | 1011.9 |
| 20260507120500 | 21 | 254 | 4.8 | 12.9 | 0.00 | 0.00 | 0.00 | 46 | 1011.9 |
| 20260507120000 | 21 | 135 | 3.2 | 12.9 | 0.00 | 0.00 | 0.00 | 47 | 1012.0 |
| 20260507115739 | 21 | 162 | 3.2 | 9.7 | 0.00 | 0.00 | 0.00 | 47 | 1012.0 |
| 20260507115300 | 20 | 133 | 3.2 | 11.3 | 0.00 | 0.00 | 0.00 | 48 | 1011.8 |
| 20260507114524 | 21 | 121 | 8.0 | 11.3 | 0.00 | 0.00 | 0.00 | 49 | 1011.9 |
| 20260507114517 | 20 | 130 | 1.6 | 11.3 | 0.00 | 0.00 | 0.00 | 49 | 1011.9 |
| 20260507113501 | 21 | 168 | 1.6 | 8.0 | 0.00 | 0.00 | 0.00 | 48 | 1012.0 |
| 20260507113024 | 21 | 116 | 6.4 | 9.7 | 0.00 | 0.00 | 0.00 | 49 | 1011.9 |
| 20260507113017 | 21 | 111 | 3.2 | 8.0 | 0.00 | 0.00 | 0.00 | 48 | 1012.3 |
| 20260507112001 | 21 | 131 | 3.2 | 9.7 | 0.00 | 0.00 | 0.00 | 50 | 1012.2 |
| 20260507111503 | 20 | 107 | 6.4 | 12.9 | 0.00 | 0.00 | 0.00 | 49 | 1012.2 |
| 20260507111002 | 20 | 133 | 4.8 | 12.9 | 0.00 | 0.00 | 0.00 | 51 | 1012.1 |
| 20260507110501 | 21 | 143 | 4.8 | 11.3 | 0.00 | 0.00 | 0.00 | 49 | 1011.9 |
| 20260507110001 | 21 | 163 | 4.8 | 9.7 | 0.00 | 0.00 | 0.00 | 50 | 1012.1 |
| 20260507105501 | 21 | 117 | 4.8 | 9.7 | 0.00 | 0.00 | 0.00 | 49 | 1012.2 |
| 20260507105246 | 20 | 195 | 1.6 | 9.7 | 0.00 | 0.00 | 0.00 | 51 | 1012.3 |
| 20260507104459 | 20 | 120 | 4.8 | 6.4 | 0.00 | 0.00 | 0.00 | 50 | 1012.1 |
| 20260507104242 | 20 | 186 | 3.2 | 8.0 | 0.00 | 0.00 | 0.00 | 49 | 1012.3 |
| 20260507103500 | 20 | 337 | 1.6 | 8.0 | 0.00 | 0.00 | 0.00 | 51 | 1012.3 |
| 20260507103001 | 21 | 299 | 0.0 | 9.7 | 0.00 | 0.00 | 0.00 | 49 | 1012.2 |
| 20260507102500 | 20 | 166 | 6.4 | 9.7 | 0.00 | 0.00 | 0.00 | 51 | 1012.5 |
| 20260507102000 | 20 | 18 | 1.6 | 6.4 | 0.00 | 0.00 | 0.00 | 53 | 1012.3 |
| 20260507101459 | 21 | 10 | 0.0 | 6.4 | 0.00 | 0.00 | 0.00 | 51 | 1012.1 |
| 20260507101002 | 20 | 156 | 3.2 | 8.0 | 0.00 | 0.00 | 0.00 | 51 | 1012.4 |
| 20260507100531 | 19 | 290 | 3.2 | 4.8 | 0.00 | 0.00 | 0.00 | 54 | 1012.4 |
| 20260507100521 | 20 | 320 | 1.6 | 8.0 | 0.00 | 0.00 | 0.00 | 53 | 1012.2 |
| 20260507095500 | 20 | 283 | 4.8 | 4.8 | 0.00 | 0.00 | 0.00 | 52 | 1012.3 |
| 20260507094959 | 20 | 338 | 3.2 | 8.0 | 0.00 | 0.00 | 0.00 | 52 | 1012.2 |
| 20260507094459 | 20 | 161 | 1.6 | 8.0 | 0.00 | 0.00 | 0.00 | 54 | 1012.3 |
| 20260507093959 | 20 | 159 | 3.2 | 6.4 | 0.00 | 0.00 | 0.00 | 55 | 1012.3 |
| 20260507093458 | 20 | 198 | 0.0 | 6.4 | 0.00 | 0.00 | 0.00 | 54 | 1012.2 |
| 20260507093243 | 20 | 175 | 1.6 | 4.8 | 0.00 | 0.00 | 0.00 | 54 | 1012.0 |
| 20260507092457 | 20 | 1 | 1.6 | 4.8 | 0.00 | 0.00 | 0.00 | 55 | 1012.2 |
| 20260507092023 | 19 | 323 | 4.8 | 6.4 | 0.00 | 0.00 | 0.00 | 55 | 1011.9 |
| 20260507092014 | 19 | 347 | 0.0 | 4.8 | 0.00 | 0.00 | 0.00 | 56 | 1011.9 |
| 20260507091238 | 19 | 337 | 3.2 | 6.4 | 0.00 | 0.00 | 0.00 | 55 | 1011.8 |
| 20260507090739 | 20 | 141 | 1.6 | 6.4 | 0.00 | 0.00 | 0.00 | 56 | 1012.0 |
| 20260507085957 | 19 | 74 | 3.2 | 6.4 | 0.00 | 0.00 | 0.00 | 57 | 1011.7 |
| 20260507085457 | 20 | 1 | 1.6 | 6.4 | 0.00 | 0.00 | 0.00 | 58 | 1011.8 |
| 20260507085000 | 19 | 145 | 0.0 | 6.4 | 0.00 | 0.00 | 0.00 | 60 | 1011.7 |
| 20260507084456 | 19 | 341 | 3.2 | 9.7 | 0.00 | 0.00 | 0.00 | 59 | 1011.6 |
| 20260507083956 | 18 | 99 | 1.6 | 9.7 | 0.00 | 0.00 | 0.00 | 60 | 1011.5 |
| 20260507083455 | 19 | 137 | 3.2 | 4.8 | 0.00 | 0.00 | 0.00 | 61 | 1011.3 |
| 20260507082958 | 18 | 171 | 3.2 | 6.4 | 0.00 | 0.00 | 0.00 | 62 | 1011.4 |
| 20260507082456 | 18 | 328 | 0.0 | 8.0 | 0.00 | 0.00 | 0.00 | 63 | 1011.7 |
| 20260507081957 | 18 | 309 | 3.2 | 8.0 | 0.00 | 0.00 | 0.00 | 63 | 1011.5 |
| 20260507081457 | 18 | 84 | 0.0 | 6.4 | 0.00 | 0.00 | 0.00 | 64 | 1011.4 |
| 20260507080956 | 17 | 359 | 3.2 | 9.7 | 0.00 | 0.00 | 0.00 | 63 | 1011.4 |
| 20260507080454 | 17 | 164 | 3.2 | 9.7 | 0.00 | 0.00 | 0.00 | 66 | 1011.4 |
| 20260507075954 | 17 | 334 | 0.0 | 8.0 | 0.00 | 0.00 | 0.00 | 67 | 1011.4 |
| 20260507075736 | 17 | 19 | 0.0 | 4.8 | 0.00 | 0.00 | 0.00 | 65 | 1011.4 |
| 20260507075240 | 17 | 149 | 0.0 | 6.4 | 0.00 | 0.00 | 0.00 | 64 | 1011.4 |
| 20260507074454 | 17 | 22 | 0.0 | 6.4 | 0.00 | 0.00 | 0.00 | 65 | 1011.6 |
| 20260507073955 | 17 | 1 | 1.6 | 4.8 | 0.00 | 0.00 | 0.00 | 64 | 1011.3 |
| 20260507073454 | 17 | 13 | 3.2 | 4.8 | 0.00 | 0.00 | 0.00 | 64 | 1011.6 |
| 20260507073235 | 18 | 16 | 0.0 | 9.7 | 0.00 | 0.00 | 0.00 | 64 | 1011.6 |
| 20260507072456 | 17 | 124 | 0.0 | 9.7 | 0.00 | 0.00 | 0.00 | 67 | 1011.3 |
| 20260507072239 | 17 | 39 | 0.0 | 6.4 | 0.00 | 0.00 | 0.00 | 67 | 1011.5 |
| 20260507071453 | 17 | 71 | 0.0 | 6.4 | 0.00 | 0.00 | 0.00 | 67 | 1011.4 |
| 20260507071236 | 17 | 326 | 1.6 | 6.4 | 0.00 | 0.00 | 0.00 | 67 | 1011.3 |
| 20260507070451 | 17 | 316 | 0.0 | 6.4 | 0.00 | 0.00 | 0.00 | 67 | 1011.4 |
| 20260507065952 | 17 | 13 | 1.6 | 4.8 | 0.00 | 0.00 | 0.00 | 67 | 1011.5 |
| 20260507065451 | 16 | 31 | 0.0 | 4.8 | 0.00 | 0.00 | 0.00 | 68 | 1011.3 |
| 20260507064952 | 16 | 26 | 1.6 | 4.8 | 0.00 | 0.00 | 0.00 | 68 | 1011.4 |
| 20260507064526 | 16 | 291 | 0.0 | 6.4 | 0.00 | 0.00 | 0.00 | 70 | 1011.1 |
| 20260507064516 | 16 | 37 | 0.0 | 6.4 | 0.00 | 0.00 | 0.00 | 69 | 1011.2 |
| 20260507063736 | 16 | 189 | 1.6 | 6.4 | 0.00 | 0.00 | 0.00 | 71 | 1011.0 |
| 20260507062952 | 16 | 322 | 0.0 | 4.8 | 0.00 | 0.00 | 0.00 | 71 | 1011.0 |
| 20260507062449 | 16 | 79 | 0.0 | 6.4 | 0.00 | 0.00 | 0.00 | 72 | 1011.1 |
| 20260507061951 | 15 | 333 | 0.0 | 9.7 | 0.00 | 0.00 | 0.00 | 73 | 1011.0 |
| 20260507061450 | 15 | 321 | 3.2 | 11.3 | 0.00 | 0.00 | 0.00 | 74 | 1010.7 |
| 20260507060951 | 15 | 346 | 3.2 | 11.3 | 0.00 | 0.00 | 0.00 | 74 | 1010.6 |
| 20260507060453 | 15 | 231 | 0.0 | 9.7 | 0.00 | 0.00 | 0.00 | 75 | 1010.7 |
| 20260507055951 | 15 | 99 | 1.6 | 9.7 | 0.00 | 0.00 | 0.00 | 76 | 1010.7 |
| 20260507055450 | 15 | 338 | 3.2 | 6.4 | 0.00 | 0.00 | 0.00 | 77 | 1010.5 |
| 20260507054952 | 15 | 286 | 3.2 | 6.4 | 0.00 | 0.00 | 0.00 | 77 | 1010.6 |
| 20260507054450 | 15 | 198 | 1.6 | 8.0 | 0.00 | 0.00 | 0.00 | 77 | 1010.6 |
| 20260507053951 | 15 | 246 | 3.2 | 8.0 | 0.00 | 0.00 | 0.00 | 79 | 1010.5 |
| 20260507053450 | 15 | 251 | 0.0 | 6.4 | 0.00 | 0.00 | 0.00 | 79 | 1010.4 |
| 20260507052951 | 15 | 235 | 3.2 | 6.4 | 0.00 | 0.00 | 0.00 | 80 | 1010.5 |
| 20260507052734 | 15 | 193 | 3.2 | 6.4 | 0.00 | 0.00 | 0.00 | 81 | 1010.5 |
| 20260507051951 | 14 | 34 | 3.2 | 6.4 | 0.00 | 0.00 | 0.00 | 81 | 1010.3 |
| 20260507051733 | 14 | 273 | 0.0 | 11.3 | 0.00 | 0.00 | 0.00 | 81 | 1010.2 |
| 20260507050952 | 14 | 327 | 0.0 | 11.3 | 0.00 | 0.00 | 0.00 | 82 | 1010.2 |
| 20260507050517 | 14 | 39 | 4.8 | 9.7 | 0.00 | 0.00 | 0.00 | 82 | 1009.9 |
| 20260507050505 | 14 | 35 | 3.2 | 9.7 | 0.00 | 0.00 | 0.00 | 82 | 1010.1 |
| 20260507045449 | 14 | 308 | 0.0 | 9.7 | 0.00 | 0.00 | 0.00 | 82 | 1010.0 |
| 20260507044950 | 13 | 56 | 4.8 | 6.4 | 0.00 | 0.00 | 0.00 | 83 | 1010.1 |
| 20260507044732 | 13 | 160 | 3.2 | 4.8 | 0.00 | 0.00 | 0.00 | 84 | 1009.7 |
| 20260507043951 | 13 | 212 | 0.0 | 4.8 | 0.00 | 0.00 | 0.00 | 84 | 1009.9 |
| 20260507043450 | 13 | 304 | 0.0 | 6.4 | 0.00 | 0.00 | 0.00 | 84 | 1009.8 |
| 20260507043234 | 13 | 254 | 1.6 | 6.4 | 0.00 | 0.00 | 0.00 | 84 | 1009.8 |
| 20260507042448 | 13 | 163 | 1.6 | 6.4 | 0.00 | 0.00 | 0.00 | 84 | 1009.8 |
| 20260507041950 | 13 | 184 | 1.6 | 6.4 | 0.00 | 0.00 | 0.00 | 84 | 1009.4 |
| 20260507041449 | 13 | 161 | 3.2 | 6.4 | 0.00 | 0.00 | 0.00 | 84 | 1009.7 |
| 20260507040950 | 13 | 170 | 1.6 | 4.8 | 0.00 | 0.00 | 0.00 | 84 | 1009.7 |
| 20260507040450 | 12 | 227 | 1.6 | 6.4 | 0.00 | 0.00 | 0.00 | 85 | 1009.4 |
| 20260507035950 | 12 | 113 | 3.2 | 6.4 | 0.00 | 0.00 | 0.00 | 85 | 1009.3 |
| 20260507035449 | 13 | 175 | 3.2 | 6.4 | 0.00 | 0.00 | 0.00 | 84 | 1009.2 |
| 20260507034951 | 12 | 28 | 1.6 | 6.4 | 0.00 | 0.00 | 0.00 | 85 | 1009.0 |
| 20260507034448 | 12 | 202 | 1.6 | 6.4 | 0.00 | 0.00 | 0.00 | 85 | 1009.2 |
| 20260507033950 | 12 | 128 | 0.0 | 6.4 | 0.00 | 0.00 | 0.00 | 84 | 1009.0 |
| 20260507033516 | 12 | 332 | 3.2 | 8.0 | 0.00 | 0.00 | 0.00 | 84 | 1008.8 |
| 20260507033504 | 12 | 162 | 0.0 | 8.0 | 0.00 | 0.00 | 0.00 | 84 | 1008.8 |
| 20260507032451 | 12 | 78 | 4.8 | 8.0 | 0.00 | 0.00 | 0.00 | 84 | 1008.9 |
| 20260507031950 | 12 | 131 | 4.8 | 6.4 | 0.00 | 0.00 | 0.00 | 84 | 1008.8 |
| 20260507031448 | 13 | 118 | 3.2 | 6.4 | 0.00 | 0.00 | 0.00 | 84 | 1008.6 |
| 20260507031010 | 13 | 132 | 3.2 | 6.4 | 0.00 | 0.00 | 0.00 | 84 | 1008.7 |
| 20260507031004 | 13 | 239 | 3.2 | 6.4 | 0.00 | 0.00 | 0.00 | 84 | 1008.7 |
| 20260507025950 | 13 | 176 | 3.2 | 4.8 | 0.00 | 0.00 | 0.00 | 83 | 1008.5 |
| 20260507025449 | 13 | 257 | 1.6 | 9.7 | 0.00 | 0.00 | 0.00 | 83 | 1008.5 |
| 20260507024950 | 13 | 99 | 3.2 | 9.7 | 0.00 | 0.00 | 0.00 | 82 | 1008.6 |
| 20260507024452 | 13 | 160 | 4.8 | 9.7 | 0.00 | 0.00 | 0.00 | 83 | 1008.5 |
| 20260507023950 | 13 | 147 | 3.2 | 4.8 | 0.00 | 0.00 | 0.00 | 83 | 1008.5 |
| 20260507023448 | 13 | 102 | 0.0 | 4.8 | 0.00 | 0.00 | 0.00 | 83 | 1008.5 |
| 20260507022951 | 13 | 147 | 1.6 | 3.2 | 0.00 | 0.00 | 0.00 | 83 | 1008.3 |
| 20260507022449 | 13 | 157 | 1.6 | 3.2 | 0.00 | 0.00 | 0.00 | 82 | 1008.4 |
| 20260507021950 | 13 | 5 | 0.0 | 3.2 | 0.00 | 0.00 | 0.00 | 82 | 1007.9 |
| 20260507021449 | 13 | 263 | 0.0 | 6.4 | 0.00 | 0.00 | 0.00 | 82 | 1008.1 |
| 20260507020950 | 13 | 310 | 3.2 | 6.4 | 0.00 | 0.00 | 0.00 | 82 | 1008.3 |
| 20260507020733 | 13 | 342 | 1.6 | 3.2 | 0.00 | 0.00 | 0.00 | 81 | 1008.4 |
| 20260507015950 | 13 | 166 | 0.0 | 3.2 | 0.00 | 0.00 | 0.00 | 81 | 1008.4 |
| 20260507015449 | 13 | 154 | 0.0 | 3.2 | 0.00 | 0.00 | 0.00 | 80 | 1008.4 |
| 20260507014951 | 13 | 193 | 0.0 | 3.2 | 0.00 | 0.00 | 0.00 | 80 | 1008.5 |
| 20260507014448 | 13 | 224 | 0.0 | 3.2 | 0.00 | 0.00 | 0.00 | 80 | 1008.4 |
| 20260507013950 | 14 | 235 | 0.0 | 3.2 | 0.00 | 0.00 | 0.00 | 80 | 1008.1 |
| 20260507013449 | 14 | 224 | 0.0 | 3.2 | 0.00 | 0.00 | 0.00 | 80 | 1008.3 |
| 20260507012950 | 14 | 114 | 0.0 | 4.8 | 0.00 | 0.00 | 0.00 | 79 | 1007.9 |
| 20260507012450 | 14 | 312 | 0.0 | 6.4 | 0.00 | 0.00 | 0.00 | 79 | 1008.1 |
| 20260507011949 | 14 | 352 | 0.0 | 9.7 | 0.00 | 0.00 | 0.00 | 79 | 1007.9 |
| 20260507011448 | 14 | 348 | 3.2 | 9.7 | 0.00 | 0.00 | 0.00 | 79 | 1008.1 |
| 20260507010953 | 14 | 262 | 3.2 | 6.4 | 0.00 | 0.00 | 0.00 | 79 | 1007.5 |
| 20260507010448 | 14 | 157 | 4.8 | 6.4 | 0.00 | 0.00 | 0.00 | 79 | 1007.3 |
| 20260507005951 | 14 | 19 | 0.0 | 6.4 | 0.00 | 0.00 | 0.00 | 79 | 1007.2 |
| 20260507005449 | 14 | 110 | 0.0 | 11.3 | 0.00 | 0.00 | 0.00 | 79 | 1007.3 |
| 20260507005232 | 14 | 207 | 0.0 | 11.3 | 0.00 | 0.00 | 0.00 | 79 | 1007.1 |
| 20260507004450 | 14 | 252 | 0.0 | 6.4 | 0.00 | 0.00 | 0.00 | 78 | 1007.2 |
| 20260507003950 | 14 | 317 | 4.8 | 8.0 | 0.00 | 0.00 | 0.00 | 78 | 1007.1 |
| 20260507003510 | 15 | 155 | 3.2 | 8.0 | 0.00 | 0.00 | 0.00 | 78 | 1006.9 |
| 20260507003504 | 15 | 148 | 3.2 | 8.0 | 0.00 | 0.00 | 0.00 | 78 | 1007.1 |
| 20260507002448 | 15 | 344 | 1.6 | 4.8 | 0.00 | 0.00 | 0.00 | 78 | 1006.8 |
| 20260507002232 | 15 | 117 | 3.2 | 8.0 | 0.00 | 0.00 | 0.00 | 78 | 1006.9 |
| 20260507001448 | 15 | 304 | 6.4 | 8.0 | 0.00 | 0.00 | 0.00 | 78 | 1006.8 |
| 20260507000949 | 15 | 9 | 1.6 | 6.4 | 0.00 | 0.00 | 0.00 | 78 | 1006.8 |
| 20260507000450 | 15 | 15 | 3.2 | 3.2 | 0.00 | 0.00 | 0.00 | 79 | 1006.8 |
| 20260506235949 | 15 | 15 | 0.0 | 3.2 | 0.00 | 0.00 | 0.00 | 79 | 1006.9 |
| 20260506235733 | 15 | 104 | 1.6 | 4.8 | 0.00 | 0.00 | 0.00 | 78 | 1006.7 |
| 20260506234950 | 15 | 15 | 0.0 | 4.8 | 0.00 | 0.00 | 0.00 | 78 | 1006.6 |
| 20260506234732 | 15 | 171 | 0.0 | 4.8 | 0.00 | 0.00 | 0.00 | 78 | 1006.5 |
| 20260506234230 | 14 | 63 | 0.0 | 4.8 | 0.00 | 0.00 | 0.00 | 78 | 1006.3 |
| 20260506233731 | 15 | 76 | 0.0 | 4.8 | 0.00 | 0.00 | 0.00 | 77 | 1006.2 |
| 20260506232950 | 15 | 251 | 3.2 | 6.4 | 0.00 | 0.00 | 0.00 | 77 | 1006.3 |
| 20260506232449 | 15 | 167 | 4.8 | 6.4 | 0.00 | 0.00 | 0.00 | 76 | 1006.2 |
| 20260506231950 | 15 | 342 | 1.6 | 6.4 | 0.00 | 0.00 | 0.00 | 76 | 1006.0 |
| 20260506231449 | 15 | 135 | 0.0 | 6.4 | 0.00 | 0.00 | 0.00 | 74 | 1006.1 |
| 20260506230952 | 15 | 152 | 1.6 | 4.8 | 0.00 | 0.00 | 0.00 | 74 | 1005.9 |
| 20260506230448 | 15 | 140 | 0.0 | 3.2 | 0.00 | 0.00 | 0.00 | 74 | 1006.0 |
| 20260506225950 | 15 | 134 | 1.6 | 3.2 | 0.00 | 0.00 | 0.00 | 73 | 1005.9 |
| 20260506225730 | 16 | 135 | 0.0 | 4.8 | 0.00 | 0.00 | 0.00 | 72 | 1006.0 |
| 20260506225232 | 16 | 154 | 1.6 | 9.7 | 0.00 | 0.00 | 0.00 | 72 | 1006.0 |
| 20260506224450 | 16 | 179 | 3.2 | 12.9 | 0.00 | 0.00 | 0.00 | 71 | 1006.0 |
| 20260506223949 | 16 | 141 | 1.6 | 17.7 | 0.00 | 0.00 | 0.00 | 71 | 1005.8 |
| 20260506223731 | 16 | 170 | 3.2 | 17.7 | 0.00 | 0.00 | 0.00 | 70 | 1005.7 |
| 20260506222951 | 16 | 126 | 16.1 | 17.7 | 0.00 | 0.00 | 0.00 | 70 | 1005.8 |
| 20260506222510 | 16 | 131 | 6.4 | 17.7 | 0.00 | 0.00 | 0.00 | 69 | 1005.6 |
| 20260506222459 | 16 | 137 | 9.7 | 16.1 | 0.00 | 0.00 | 0.00 | 70 | 1005.7 |
| 20260506221443 | 16 | 137 | 12.9 | 17.7 | 0.00 | 0.00 | 0.00 | 69 | 1005.6 |
| 20260506221223 | 17 | 116 | 1.6 | 14.5 | 0.00 | 0.00 | 0.00 | 69 | 1005.7 |
| 20260506220444 | 17 | 138 | 9.7 | 14.5 | 0.00 | 0.00 | 0.00 | 69 | 1005.7 |
| 20260506215941 | 17 | 137 | 8.0 | 14.5 | 0.00 | 0.00 | 0.00 | 69 | 1005.8 |
| 20260506215443 | 17 | 135 | 6.4 | 8.0 | 0.00 | 0.00 | 0.00 | 68 | 1005.7 |
| 20260506214943 | 17 | 163 | 1.6 | 9.7 | 0.00 | 0.00 | 0.00 | 68 | 1005.7 |
| 20260506214443 | 17 | 114 | 1.6 | 12.9 | 0.00 | 0.00 | 0.00 | 68 | 1005.6 |
| 20260506214225 | 17 | 120 | 4.8 | 12.9 | 0.00 | 0.00 | 0.00 | 68 | 1005.4 |